FW9022 Weather Reports


time (UTC)temp
C
wind
direction
speed
KPH
gust
KPH
rain 1hr
cm
rain 24hr
cm
rain mn
cm
humidity
%
barometer
mb
20260508235825 16 164 4.8 11.3 0.00 0.00 0.00 68 1013.1
20260508234819 16 101 4.8 11.3 0.00 0.00 0.00 67 1013.1
20260508233833 17 136 9.7 14.5 0.00 0.00 0.00 66 1013.2
20260508232832 17 205 3.2 14.5 0.00 0.00 0.00 65 1012.9
20260508231827 17 121 3.2 20.9 0.00 0.00 0.00 65 1012.9
20260508230832 17 161 3.2 25.7 0.00 0.00 0.00 64 1012.8
20260508225851 17 210 4.8 16.1 0.00 0.00 0.00 63 1012.6
20260508224828 18 211 6.4 16.1 0.00 0.00 0.00 62 1012.6
20260508223822 18 183 4.8 12.9 0.00 0.00 0.00 62 1012.7
20260508222836 18 122 9.7 25.7 0.00 0.00 0.00 61 1012.7
20260508221835 18 205 3.2 17.7 0.00 0.00 0.00 60 1012.7
20260508220839 18 170 9.7 24.1 0.00 0.00 0.00 59 1012.5
20260508215819 19 180 3.2 17.7 0.00 0.00 0.00 58 1012.4
20260508214834 19 66 4.8 17.7 0.00 0.00 0.00 58 1012.4
20260508213832 19 207 4.8 17.7 0.00 0.00 0.00 59 1012.7
20260508212826 19 182 6.4 20.9 0.00 0.00 0.00 58 1012.5
20260508211820 18 170 8.0 24.1 0.00 0.00 0.00 58 1012.5
20260508210849 18 198 12.9 22.5 0.00 0.00 0.00 58 1012.4
20260508205829 18 149 8.0 19.3 0.00 0.00 0.00 58 1012.6
20260508204823 18 242 4.8 19.3 0.00 0.00 0.00 57 1012.6
20260508203818 19 147 3.2 16.1 0.00 0.00 0.00 57 1012.7
20260508202837 18 113 8.0 19.3 0.00 0.00 0.00 57 1013.0
20260508201831 18 246 8.0 27.4 0.00 0.00 0.00 57 1013.0
20260508200854 18 118 9.7 24.1 0.00 0.00 0.00 56 1012.9
20260508195846 18 112 6.4 17.7 0.00 0.00 0.00 57 1013.5
20260508194840 18 132 6.4 16.1 0.00 0.00 0.00 58 1013.5
20260508193830 18 92 3.2 20.9 0.00 0.00 0.00 57 1013.5
20260508192843 18 136 1.6 25.7 0.00 0.00 0.00 56 1013.9
20260508191833 18 142 1.6 22.5 0.00 0.00 0.00 57 1013.9
20260508190901 18 165 3.2 20.9 0.00 0.00 0.00 56 1014.6
20260508185819 18 65 4.8 32.2 0.00 0.00 0.00 56 1014.9
20260508184833 18 153 6.4 14.5 0.00 0.00 0.00 56 1014.9
20260508183828 18 134 4.8 16.1 0.00 0.00 0.00 56 1015.3
20260508182828 18 130 1.6 20.9 0.00 0.00 0.00 56 1015.2
20260508181821 18 88 6.4 16.1 0.00 0.00 0.00 57 1015.2
20260508180847 18 123 1.6 22.5 0.00 0.00 0.00 56 1015.3
20260508175831 19 131 11.3 19.3 0.00 0.00 0.00 54 1015.6
20260508174825 18 153 8.0 17.7 0.00 0.00 0.00 52 1015.6
20260508173820 18 234 8.0 16.1 0.00 0.00 0.00 53 1015.1
20260508172833 18 138 4.8 16.1 0.00 0.00 0.00 54 1015.9
20260508171831 18 276 0.0 11.3 0.00 0.00 0.00 54 1015.9
20260508170835 18 151 0.0 11.3 0.00 0.00 0.00 52 1015.5
20260508165835 18 135 6.4 17.7 0.00 0.00 0.00 53 1015.7
20260508164834 18 184 1.6 17.7 0.00 0.00 0.00 53 1015.7
20260508163828 17 246 3.2 8.0 0.00 0.00 0.00 56 1015.8
20260508162822 17 137 6.4 12.9 0.00 0.00 0.00 54 1016.2
20260508161857 17 103 1.6 8.0 0.00 0.00 0.00 54 1016.2
20260508160901 17 121 3.2 11.3 0.00 0.00 0.00 55 1016.5
20260508155820 16 236 1.6 8.0 0.00 0.00 0.00 57 1016.8
20260508154854 16 24 3.2 6.4 0.00 0.00 0.00 56 1016.8
20260508153827 16 355 4.8 8.0 0.00 0.00 0.00 56 1017.1
20260508152825 15 17 3.2 6.4 0.00 0.03 0.00 55 1017.2
20260508151820 15 9 1.6 6.4 0.00 0.03 0.00 55 1017.2
20260508150845 15 36 0.0 8.0 0.00 0.03 0.00 58 1017.2
20260508145829 15 64 0.0 4.8 0.00 0.03 0.00 58 1017.6
20260508144824 14 38 0.0 6.4 0.00 0.03 0.00 58 1017.6
20260508143858 14 32 0.0 1.6 0.00 0.03 0.00 60 1017.6
20260508142831 14 32 1.6 4.8 0.00 0.03 0.00 59 1017.8
20260508141830 13 32 0.0 3.2 0.00 0.03 0.00 58 1017.8
20260508140835 13 32 1.6 4.8 0.00 0.03 0.00 60 1017.9
20260508135836 13 82 3.2 4.8 0.00 0.03 0.00 58 1017.8
20260508134830 13 133 1.6 3.2 0.00 0.03 0.00 66 1017.8
20260508133828 13 134 0.0 4.8 0.00 0.03 0.00 73 1017.9
20260508132822 13 133 0.0 4.8 0.00 0.03 0.00 77 1018.2
20260508131836 12 214 0.0 0.0 0.00 0.03 0.00 79 1018.2
20260508130905 11 214 0.0 1.6 0.00 0.03 0.00 86 1018.0
20260508125824 10 214 0.0 1.6 0.00 0.03 0.00 93 1018.1
20260508124837 9 214 0.0 1.6 0.00 0.03 0.00 94 1018.1
20260508123830 8 214 0.0 1.6 0.00 0.03 0.00 96 1017.5
20260508122847 7 214 0.0 1.6 0.00 0.05 0.00 97 1017.4
20260508121901 7 214 0.0 1.6 0.00 0.05 0.00 97 1017.4
20260508120844 6 214 0.0 0.0 0.00 0.05 0.00 97 1017.1
20260508115823 6 214 0.0 0.0 0.00 0.05 0.00 97 1017.0
20260508114822 5 214 0.0 0.0 0.00 0.05 0.00 97 1017.0
20260508113837 5 214 0.0 0.0 0.00 0.05 0.00 96 1017.0
20260508112851 5 214 0.0 0.0 0.00 0.38 0.00 96 1016.6
20260508111823 5 214 0.0 0.0 0.00 0.38 0.00 96 1016.6
20260508110833 5 214 0.0 0.0 0.00 0.38 0.00 96 1016.4
20260508105833 5 214 0.0 0.0 0.00 0.38 0.00 96 1016.1
20260508104847 5 214 0.0 0.0 0.00 0.38 0.00 96 1016.1
20260508103820 5 214 0.0 0.0 0.00 0.38 0.00 96 1015.9
20260508102818 5 215 0.0 0.0 0.00 0.41 0.00 96 1015.9
20260508101832 5 214 0.0 0.0 0.00 0.41 0.00 96 1015.9
20260508100858 5 214 0.0 0.0 0.00 0.41 0.00 96 1015.7
20260508095820 5 215 0.0 0.0 0.00 0.41 0.00 96 1015.3
20260508094854 5 215 0.0 0.0 0.00 0.41 0.00 96 1015.3
20260508093847 5 215 0.0 0.0 0.00 0.41 0.00 96 1015.3
20260508092820 5 215 0.0 0.0 0.00 0.41 0.00 96 1015.4
20260508091855 6 214 0.0 0.0 0.00 0.41 0.00 96 1015.4
20260508090843 6 215 0.0 0.0 0.00 0.41 0.00 96 1015.9
20260508085824 6 214 0.0 0.0 0.00 0.41 0.00 96 1015.9
20260508084838 6 214 0.0 0.0 0.00 0.41 0.00 96 1015.9
20260508083836 6 214 0.0 0.0 0.00 0.41 0.00 95 1015.7
20260508082830 6 214 0.0 0.0 0.00 0.41 0.00 96 1015.4
20260508081844 6 215 0.0 0.0 0.00 0.41 0.00 95 1015.4
20260508080848 6 215 0.0 1.6 0.00 0.41 0.00 95 1015.4
20260508075852 7 215 0.0 0.0 0.00 0.41 0.00 95 1015.1
20260508074825 7 215 0.0 0.0 0.00 0.41 0.00 95 1015.1
20260508073859 7 214 0.0 0.0 0.00 0.41 0.00 95 1015.2
20260508072832 7 214 0.0 1.6 0.00 0.43 0.00 96 1015.0
20260508071830 7 215 0.0 0.0 0.00 0.43 0.00 96 1015.0
20260508070835 7 215 0.0 0.0 0.00 0.43 0.00 96 1014.7
20260508065831 7 215 0.0 1.6 0.00 0.43 0.00 96 1014.7
20260508064826 7 259 0.0 1.6 0.00 0.43 0.00 96 1014.7
20260508063824 7 259 0.0 0.0 0.00 0.43 0.00 96 1014.7
20260508062818 7 259 0.0 0.0 0.00 0.43 0.00 96 1014.7
20260508061831 7 259 0.0 0.0 0.00 0.43 0.00 96 1014.7
20260508060841 7 259 0.0 0.0 0.00 0.43 0.00 96 1014.7
20260508055820 7 259 0.0 0.0 0.00 0.43 0.00 96 1014.8
20260508054835 8 259 0.0 0.0 0.00 0.43 0.00 96 1014.8
20260508053829 8 259 0.0 0.0 0.00 0.43 0.00 96 1014.9
20260508052828 8 259 0.0 0.0 0.00 0.58 0.00 96 1015.0
20260508051821 8 259 0.0 0.0 0.00 0.58 0.00 96 1015.0
20260508050847 8 259 0.0 1.6 0.00 0.58 0.00 96 1014.8
20260508045831 7 259 0.0 1.6 0.00 0.58 0.00 96 1014.7
20260508044826 7 259 0.0 0.0 0.00 0.58 0.00 96 1014.7
20260508043821 7 259 0.0 0.0 0.00 0.58 0.00 96 1014.7
20260508042819 7 259 0.0 0.0 0.00 0.69 0.00 96 1014.7
20260508041834 7 259 1.6 3.2 0.00 0.69 0.00 96 1014.7
20260508040838 7 49 0.0 0.0 0.00 0.69 0.00 96 1014.7
20260508035819 7 49 0.0 0.0 0.00 0.69 0.61 95 1014.7
20260508034818 7 49 0.0 0.0 0.00 0.69 0.61 95 1014.7
20260508033832 8 49 0.0 0.0 0.00 0.69 0.61 95 1014.7
20260508032826 8 49 0.0 0.0 0.00 0.69 0.61 95 1014.8
20260508031824 8 49 0.0 0.0 0.00 0.69 0.61 95 1014.8
20260508030849 8 49 0.0 0.0 0.00 0.69 0.61 95 1014.7
20260508025830 8 49 0.0 0.0 0.00 0.69 0.61 95 1014.8
20260508024824 8 49 0.0 0.0 0.00 0.69 0.61 95 1014.8
20260508023843 8 49 0.0 1.6 0.00 0.69 0.61 95 1014.5
20260508022836 8 49 0.0 1.6 0.00 0.76 0.61 95 1014.1
20260508021831 8 49 0.0 0.0 0.00 0.76 0.61 94 1014.1
20260508020835 8 49 0.0 1.6 0.00 0.76 0.61 94 1014.0
20260508015819 9 49 0.0 0.0 0.00 0.76 0.61 93 1014.8
20260508014834 9 49 0.0 0.0 0.00 0.76 0.61 93 1014.8
20260508013848 9 49 0.0 0.0 0.00 0.76 0.61 93 1014.5
20260508012840 10 49 0.0 1.6 0.00 0.84 0.61 93 1014.3
20260508011817 10 49 1.6 3.2 0.00 0.84 0.61 92 1014.3
20260508010842 10 49 0.0 0.0 0.00 0.84 0.61 91 1014.2
20260508005823 10 49 0.0 1.6 0.00 0.84 0.61 90 1014.2
20260508004821 11 49 0.0 0.0 0.00 0.84 0.61 90 1014.2
20260508003836 11 49 0.0 0.0 0.00 0.84 0.61 89 1013.8
20260508002830 11 49 0.0 0.0 0.00 1.02 0.61 88 1013.6
20260508001824 12 49 0.0 1.6 0.00 1.02 0.61 85 1013.6
20260508000833 12 49 0.0 6.4 0.00 1.02 0.61 85 1013.5